Location: �quirre
(50.4736°N, 2.2351°E)
Time: 05:22:07
(UTC+00:00)

Cosmos 1461 - Pass Details

Date: 07 August 2020
Orbit: 501 x 665 km, 65.0° (Epoch: 23 September)

Event Time Altitude Azimuth Distance (km) Brightness Sun altitude
Exits shadow 03:23:34 13° 228° (SW) 1,761 4.7 -9.3°
Maximum altitude 03:27:30 72° 313° (NW) 650 3.1 -8.9°
Drops below altitude 10° 03:32:05 10° 38° (NE) 2,030 7.2 -8.3°
Sets 03:34:27 0° 40° (NE) 2,963 8.6 -8.0°
